Hlavní strana
METAR-TAF:

METAR-TAF

Letiště :

Greenville, Jižní Karolína, Spojené státy americké

zeměpisná šířka: 34-45-30N, zeměpisná délka: 082-22-35W, výška: 291 m

Aktuální stav počasí

Zpráva byla vytvořena před 5 minutami, v 10:35 UTC
Bezvětří
Teplota 11°C
Vlhkost vzduchu 100%
Tlak 1015 hPa
Viditelnost: 8.0 km
Oblačno až skoro zataženo ve výšce 1200 ft
Zataženo ve výšce 1800 ft
kouřmo

METAR: KGYH 101035Z AUTO 00000KT 5SM BR BKN012 OVC018 11/11 A2996 RMK AO2

Čas: 05:40 (10:40 UTC)


TAF: chybějící

Stav a předpovědi počasí z více než 4 000 letišť (zprávy METAR a TAF).

Červené a žluté tečky na mapě představují dostupné meteorologické stanice.

Když kurzor umístíte na tečku, zobrazí se název stanice.

Pak kliknutím zobrazíte stav a předpověď počasí.

Chcete-li změnit mapu, kliknutím na zelené tlačítko se znaménkem +mapu přiblížíte, kliknutím na zelené tlačítko se znaménkem – mapu oddálíte a kliknutím na zelené šipky přejdete na sousední mapy.


METAR-TAF: